Time,TemperatureF,DewpointF,PressureIn,WindDirection,WindDirectionDegrees,WindSpeedMPH,WindSpeedGustMPH,Humidity,HourlyPrecipIn,Conditions,Clouds,dailyrainin,SoftwareType,DateUTC
2013-03-09 00:03:00,42.2,33.5,29.91,SW,226,4.0,18.0,71,0.00,,,0.00,Wunderground v.1.13,2013-03-09 08:03:00,
2013-03-09 00:08:00,42.3,32.8,29.91,West,271,5.0,9.0,69,0.00,,,0.00,Wunderground v.1.13,2013-03-09 08:08:00,
2013-03-09 00:14:00,42.8,33.0,29.91,WSW,243,7.0,14.0,68,0.00,,,0.00,Wunderground v.1.13,2013-03-09 08:14:00,
2013-03-09 00:20:00,42.9,33.1,29.91,WSW,250,7.0,7.0,68,0.00,,,0.00,Wunderground v.1.13,2013-03-09 08:20:00,
2013-03-09 00:25:00,42.9,33.4,29.91,SW,230,5.0,5.0,69,0.00,,,0.00,Wunderground v.1.13,2013-03-09 08:25:00,
2013-03-09 00:31:00,42.8,34.0,29.91,SW,226,4.0,11.0,71,0.00,,,0.00,Wunderground v.1.13,2013-03-09 08:31:00,
2013-03-09 00:37:00,42.3,34.3,29.91,WSW,247,4.0,5.0,73,0.00,,,0.00,Wunderground v.1.13,2013-03-09 08:37:00,
2013-03-09 00:42:00,42.2,34.2,29.91,SW,217,5.0,10.0,73,0.00,,,0.00,Wunderground v.1.13,2013-03-09 08:42:00,
2013-03-09 00:48:00,42.1,34.1,29.91,SSW,212,5.0,6.0,73,0.00,,,0.00,Wunderground v.1.13,2013-03-09 08:48:00,
2013-03-09 00:54:00,41.9,34.2,29.91,SW,220,4.0,6.0,74,0.00,,,0.00,Wunderground v.1.13,2013-03-09 08:54:00,
2013-03-09 01:00:00,41.9,34.6,29.92,WSW,251,7.0,11.0,75,0.00,,,0.00,Wunderground v.1.13,2013-03-09 09:00:00,
2013-03-09 01:05:00,42.2,34.5,29.92,WSW,237,9.0,9.0,74,0.00,,,0.00,Wunderground v.1.13,2013-03-09 09:05:00,
2013-03-09 01:11:00,42.1,34.4,29.92,WSW,239,8.0,11.0,74,0.00,,,0.00,Wunderground v.1.13,2013-03-09 09:11:00,
2013-03-09 01:17:00,42.3,34.6,29.92,West,280,10.0,17.0,74,0.00,,,0.00,Wunderground v.1.13,2013-03-09 09:17:00,
2013-03-09 01:23:00,42.5,34.8,29.92,SW,233,11.0,17.0,74,0.00,,,0.00,Wunderground v.1.13,2013-03-09 09:23:00,
2013-03-09 01:28:00,42.5,34.8,29.92,SW,236,10.0,12.0,74,0.00,,,0.00,Wunderground v.1.13,2013-03-09 09:28:00,
2013-03-09 01:34:00,42.3,34.6,29.92,WSW,248,9.0,11.0,74,0.00,,,0.00,Wunderground v.1.13,2013-03-09 09:34:00,
2013-03-09 01:39:00,42.2,34.8,29.92,SSW,202,7.0,9.0,75,0.00,,,0.00,Wunderground v.1.13,2013-03-09 09:39:00,
2013-03-09 01:45:00,42.1,34.7,29.92,WSW,258,6.0,12.0,75,0.00,,,0.00,Wunderground v.1.13,2013-03-09 09:45:00,
2013-03-09 01:51:00,41.9,34.6,29.92,SW,217,5.0,5.0,75,0.00,,,0.00,Wunderground v.1.13,2013-03-09 09:51:00,
2013-03-09 01:57:00,41.6,34.6,29.92,SW,226,4.0,10.0,76,0.00,,,0.00,Wunderground v.1.13,2013-03-09 09:57:00,
2013-03-09 02:03:00,41.5,34.2,29.92,WSW,253,7.0,20.0,75,0.00,,,0.00,Wunderground v.1.13,2013-03-09 10:03:00,
2013-03-09 02:08:00,41.5,33.5,29.92,WSW,243,8.0,12.0,73,0.00,,,0.00,Wunderground v.1.13,2013-03-09 10:08:00,
2013-03-09 02:14:00,41.8,33.4,29.92,WSW,250,9.0,13.0,72,0.00,,,0.00,Wunderground v.1.13,2013-03-09 10:14:00,
2013-03-09 02:20:00,41.9,33.2,29.91,WSW,247,8.0,9.0,71,0.00,,,0.00,Wunderground v.1.13,2013-03-09 10:20:00,
2013-03-09 02:26:00,41.9,33.2,29.91,SW,230,6.0,6.0,71,0.00,,,0.00,Wunderground v.1.13,2013-03-09 10:26:00,
2013-03-09 02:32:00,41.5,33.1,29.91,West,267,3.0,5.0,72,0.00,,,0.00,Wunderground v.1.13,2013-03-09 10:32:00,
2013-03-09 02:38:00,41.5,32.8,29.91,SW,230,6.0,8.0,71,0.00,,,0.00,Wunderground v.1.13,2013-03-09 10:38:00,
2013-03-09 02:44:00,41.3,33.0,29.91,WSW,243,6.0,8.0,72,0.00,,,0.00,Wunderground v.1.13,2013-03-09 10:44:00,
2013-03-09 02:50:00,41.1,33.1,29.92,SW,233,5.0,5.0,73,0.00,,,0.00,Wunderground v.1.13,2013-03-09 10:50:00,
2013-03-09 02:56:00,40.8,33.2,29.92,West,268,5.0,6.0,74,0.00,,,0.00,Wunderground v.1.13,2013-03-09 10:56:00,
2013-03-09 03:02:00,40.6,33.0,29.93,WSW,246,4.0,14.0,74,0.00,,,0.00,Wunderground v.1.13,2013-03-09 11:02:00,
2013-03-09 03:07:00,40.3,32.7,29.93,WSW,256,2.0,3.0,74,0.00,,,0.00,Wunderground v.1.13,2013-03-09 11:07:00,
2013-03-09 03:13:00,40.2,32.9,29.93,WSW,256,1.0,2.0,75,0.00,,,0.00,Wunderground v.1.13,2013-03-09 11:13:00,
2013-03-09 03:19:00,40.1,32.8,29.94,WSW,243,1.0,3.0,75,0.00,,,0.00,Wunderground v.1.13,2013-03-09 11:19:00,
2013-03-09 03:25:00,40.1,32.5,29.94,WSW,240,3.0,3.0,74,0.00,,,0.00,Wunderground v.1.13,2013-03-09 11:25:00,
2013-03-09 03:31:00,40.3,33.0,29.94,SW,236,5.0,5.0,75,0.00,,,0.00,Wunderground v.1.13,2013-03-09 11:31:00,
2013-03-09 03:36:00,40.5,32.9,29.94,WSW,241,4.0,4.0,74,0.00,,,0.00,Wunderground v.1.13,2013-03-09 11:36:00,
2013-03-09 03:42:00,40.5,32.9,29.94,SW,226,2.0,4.0,74,0.00,,,0.00,Wunderground v.1.13,2013-03-09 11:42:00,
2013-03-09 03:48:00,40.5,32.9,29.95,WSW,251,3.0,5.0,74,0.00,,,0.00,Wunderground v.1.13,2013-03-09 11:48:00,
2013-03-09 03:54:00,40.2,32.2,29.95,WSW,251,2.0,2.0,73,0.00,,,0.00,Wunderground v.1.13,2013-03-09 11:54:00,
2013-03-09 04:00:00,39.9,32.3,29.95,SW,234,2.0,3.0,74,0.00,,,0.00,Wunderground v.1.13,2013-03-09 12:00:00,
2013-03-09 04:05:00,39.9,32.3,29.95,WSW,240,3.0,3.0,74,0.00,,,0.00,Wunderground v.1.13,2013-03-09 12:05:00,
2013-03-09 04:11:00,39.9,32.6,29.95,WSW,239,4.0,6.0,75,0.00,,,0.00,Wunderground v.1.13,2013-03-09 12:11:00,
2013-03-09 04:17:00,39.8,32.5,29.96,WSW,239,3.0,3.0,75,0.00,,,0.00,Wunderground v.1.13,2013-03-09 12:17:00,
2013-03-09 04:23:00,39.5,32.2,29.96,WSW,248,3.0,5.0,75,0.00,,,0.00,Wunderground v.1.13,2013-03-09 12:23:00,
2013-03-09 04:29:00,39.3,32.0,29.96,SW,236,3.0,3.0,75,0.00,,,0.00,Wunderground v.1.13,2013-03-09 12:29:00,
2013-03-09 04:35:00,39.2,31.6,29.97,West,267,2.0,2.0,74,0.00,,,0.00,Wunderground v.1.13,2013-03-09 12:35:00,
2013-03-09 04:41:00,39.3,31.7,29.97,WNW,289,2.0,2.0,74,0.00,,,0.00,Wunderground v.1.13,2013-03-09 12:41:00,
2013-03-09 04:47:00,39.1,31.8,29.98,WNW,289,1.0,1.0,75,0.00,,,0.00,Wunderground v.1.13,2013-03-09 12:47:00,
2013-03-09 04:53:00,39.2,31.6,29.98,WSW,250,1.0,5.0,74,0.00,,,0.00,Wunderground v.1.13,2013-03-09 12:53:00,
2013-03-09 04:58:00,39.2,31.3,29.98,WSW,248,2.0,2.0,73,0.00,,,0.00,Wunderground v.1.13,2013-03-09 12:58:00,
2013-03-09 05:04:00,39.2,31.3,29.98,WSW,253,2.0,7.0,73,0.00,,,0.00,Wunderground v.1.13,2013-03-09 13:04:00,
2013-03-09 05:10:00,39.2,31.6,29.98,WSW,250,2.0,3.0,74,0.00,,,0.00,Wunderground v.1.13,2013-03-09 13:10:00,
2013-03-09 05:16:00,39.3,31.4,29.99,West,268,2.0,2.0,73,0.00,,,0.00,Wunderground v.1.13,2013-03-09 13:16:00,
2013-03-09 05:22:00,39.2,31.3,29.99,West,268,0.0,1.0,73,0.00,,,0.00,Wunderground v.1.13,2013-03-09 13:22:00,
2013-03-09 05:28:00,38.9,31.3,29.99,West,268,0.0,0.0,74,0.00,,,0.00,Wunderground v.1.13,2013-03-09 13:28:00,
2013-03-09 05:34:00,38.5,30.9,29.99,West,268,0.0,0.0,74,0.00,,,0.00,Wunderground v.1.13,2013-03-09 13:34:00,
2013-03-09 05:40:00,37.9,31.0,29.99,West,268,0.0,0.0,76,0.00,,,0.00,Wunderground v.1.13,2013-03-09 13:40:00,
2013-03-09 05:46:00,37.6,31.0,29.99,WSW,253,0.0,0.0,77,0.00,,,0.00,Wunderground v.1.13,2013-03-09 13:46:00,
2013-03-09 05:52:00,37.5,30.9,29.99,WSW,253,0.0,0.0,77,0.00,,,0.00,Wunderground v.1.13,2013-03-09 13:52:00,
2013-03-09 05:58:00,37.2,30.7,29.99,WSW,253,0.0,1.0,77,0.00,,,0.00,Wunderground v.1.13,2013-03-09 13:58:00,
2013-03-09 06:04:00,37.0,30.8,30.01,WSW,253,0.0,6.0,78,0.00,,,0.00,Wunderground v.1.13,2013-03-09 14:04:00,
2013-03-09 06:09:00,36.9,30.7,30.01,WSW,251,1.0,3.0,78,0.00,,,0.00,Wunderground v.1.13,2013-03-09 14:09:00,
2013-03-09 06:15:00,36.9,31.0,30.00,WSW,251,1.0,1.0,79,0.00,,,0.00,Wunderground v.1.13,2013-03-09 14:15:00,
2013-03-09 06:21:00,37.2,31.3,30.00,SW,230,1.0,1.0,79,0.00,,,0.00,Wunderground v.1.13,2013-03-09 14:21:00,
2013-03-09 06:26:00,37.5,31.3,30.00,SW,230,1.0,2.0,78,0.00,,,0.00,Wunderground v.1.13,2013-03-09 14:26:00,
2013-03-09 06:32:00,37.5,31.3,30.00,WSW,251,1.0,2.0,78,0.00,,,0.00,Wunderground v.1.13,2013-03-09 14:32:00,
2013-03-09 06:38:00,38.0,31.7,30.00,West,271,2.0,5.0,78,0.00,,,0.00,Wunderground v.1.13,2013-03-09 14:38:00,
2013-03-09 06:43:00,38.6,31.7,30.00,West,268,1.0,2.0,76,0.00,,,0.00,Wunderground v.1.13,2013-03-09 14:43:00,
2013-03-09 06:49:00,38.5,31.6,30.00,West,268,0.0,1.0,76,0.00,,,0.00,Wunderground v.1.13,2013-03-09 14:49:00,
2013-03-09 06:55:00,38.3,31.4,30.00,West,267,0.0,0.0,76,0.00,,,0.00,Wunderground v.1.13,2013-03-09 14:55:00,
2013-03-09 07:01:00,38.5,31.9,30.01,WSW,237,0.0,2.0,77,0.00,,,0.00,Wunderground v.1.13,2013-03-09 15:01:00,
2013-03-09 07:07:00,38.8,32.2,30.01,SW,233,0.0,1.0,77,0.00,,,0.00,Wunderground v.1.13,2013-03-09 15:07:00,
2013-03-09 07:12:00,39.8,33.2,30.01,WSW,248,1.0,6.0,77,0.00,,,0.00,Wunderground v.1.13,2013-03-09 15:12:00,
2013-03-09 07:18:00,40.9,32.9,30.01,WSW,240,1.0,2.0,73,0.00,,,0.00,Wunderground v.1.13,2013-03-09 15:18:00,
2013-03-09 07:24:00,42.1,33.0,30.01,West,265,3.0,10.0,70,0.00,,,0.00,Wunderground v.1.13,2013-03-09 15:24:00,
2013-03-09 07:30:00,43.5,33.3,30.00,SW,236,6.0,6.0,67,0.00,,,0.00,Wunderground v.1.13,2013-03-09 15:30:00,
2013-03-09 07:36:00,44.3,32.9,30.00,WSW,248,5.0,6.0,64,0.00,,,0.00,Wunderground v.1.13,2013-03-09 15:36:00,
2013-03-09 07:42:00,45.1,33.2,30.00,SSE,160,4.0,7.0,63,0.00,,,0.00,Wunderground v.1.13,2013-03-09 15:42:00,
2013-03-09 07:48:00,45.5,33.2,30.01,SE,144,5.0,8.0,62,0.00,,,0.00,Wunderground v.1.13,2013-03-09 15:48:00,
2013-03-09 07:54:00,45.8,33.5,30.01,SSE,154,7.0,10.0,62,0.00,,,0.00,Wunderground v.1.13,2013-03-09 15:54:00,
2013-03-09 07:59:00,46.4,33.3,30.01,ESE,121,8.0,13.0,60,0.00,,,0.00,Wunderground v.1.13,2013-03-09 15:59:00,
2013-03-09 08:05:00,47.0,33.0,30.01,SE,143,7.0,7.0,58,0.00,,,0.00,Wunderground v.1.13,2013-03-09 16:05:00,
2013-03-09 08:11:00,47.6,33.1,30.01,SSE,147,7.0,7.0,57,0.00,,,0.00,Wunderground v.1.13,2013-03-09 16:11:00,
2013-03-09 08:16:00,48.2,33.7,30.01,South,191,6.0,7.0,57,0.00,,,0.00,Wunderground v.1.13,2013-03-09 16:16:00,
2013-03-09 08:22:00,48.3,33.8,30.01,South,191,7.0,10.0,57,0.00,,,0.00,Wunderground v.1.13,2013-03-09 16:22:00,
2013-03-09 08:28:00,48.8,33.3,30.01,SSW,205,7.0,8.0,55,0.00,,,0.00,Wunderground v.1.13,2013-03-09 16:28:00,
2013-03-09 08:34:00,49.2,33.7,30.01,SW,219,7.0,10.0,55,0.00,,,0.00,Wunderground v.1.13,2013-03-09 16:34:00,
2013-03-09 08:39:00,49.6,33.2,30.01,South,182,7.0,12.0,53,0.00,,,0.00,Wunderground v.1.13,2013-03-09 16:39:00,
2013-03-09 08:45:00,50.1,33.1,30.01,SW,216,7.0,7.0,52,0.00,,,0.00,Wunderground v.1.13,2013-03-09 16:45:00,
2013-03-09 08:51:00,50.7,33.7,30.01,SSE,167,7.0,8.0,52,0.00,,,0.00,Wunderground v.1.13,2013-03-09 16:51:00,
2013-03-09 08:57:00,50.7,33.2,30.01,South,178,7.0,7.0,51,0.00,,,0.00,Wunderground v.1.13,2013-03-09 16:57:00,
2013-03-09 09:03:00,51.3,32.8,30.02,SSE,148,5.0,17.0,49,0.00,,,0.00,Wunderground v.1.13,2013-03-09 17:03:00,
2013-03-09 09:09:00,51.7,33.1,30.02,ESE,117,4.0,7.0,49,0.00,,,0.00,Wunderground v.1.13,2013-03-09 17:09:00,
2013-03-09 09:14:00,52.2,33.1,30.02,ESE,116,5.0,7.0,48,0.00,,,0.00,Wunderground v.1.13,2013-03-09 17:14:00,
2013-03-09 09:20:00,52.5,32.3,30.02,SE,143,5.0,5.0,46,0.00,,,0.00,Wunderground v.1.13,2013-03-09 17:20:00,
2013-03-09 09:26:00,52.8,32.6,30.02,East,97,4.0,4.0,46,0.00,,,0.00,Wunderground v.1.13,2013-03-09 17:26:00,
2013-03-09 09:32:00,53.1,32.3,30.02,SE,133,2.0,3.0,45,0.00,,,0.00,Wunderground v.1.13,2013-03-09 17:32:00,
2013-03-09 09:38:00,53.8,32.9,30.02,SE,145,3.0,6.0,45,0.00,,,0.00,Wunderground v.1.13,2013-03-09 17:38:00,
2013-03-09 09:44:00,54.1,32.1,30.02,SSE,151,3.0,3.0,43,0.00,,,0.00,Wunderground v.1.13,2013-03-09 17:44:00,
2013-03-09 09:50:00,54.5,32.4,30.02,SSW,198,2.0,3.0,43,0.00,,,0.00,Wunderground v.1.13,2013-03-09 17:50:00,
2013-03-09 09:56:00,54.7,33.2,30.02,SSE,165,3.0,10.0,44,0.00,,,0.00,Wunderground v.1.13,2013-03-09 17:56:00,
2013-03-09 10:02:00,54.8,32.7,30.02,SSW,199,6.0,16.0,43,0.00,,,0.00,Wunderground v.1.13,2013-03-09 18:02:00,
2013-03-09 10:07:00,55.1,33.0,30.02,South,191,7.0,7.0,43,0.00,,,0.00,Wunderground v.1.13,2013-03-09 18:07:00,
2013-03-09 10:13:00,55.0,32.3,30.02,SSW,192,8.0,11.0,42,0.00,,,0.00,Wunderground v.1.13,2013-03-09 18:13:00,
2013-03-09 10:18:00,54.8,32.1,30.02,SSW,205,9.0,16.0,42,0.00,,,0.00,Wunderground v.1.13,2013-03-09 18:18:00,
2013-03-09 10:24:00,54.5,31.9,30.02,South,181,10.0,11.0,42,0.00,,,0.00,Wunderground v.1.13,2013-03-09 18:24:00,
2013-03-09 10:29:00,54.8,31.5,30.02,SSW,210,10.0,14.0,41,0.00,,,0.00,Wunderground v.1.13,2013-03-09 18:29:00,
2013-03-09 10:34:00,55.1,31.2,30.02,WNW,302,9.0,14.0,40,0.00,,,0.00,Wunderground v.1.13,2013-03-09 18:34:00,
2013-03-09 10:40:00,55.4,32.7,30.02,WNW,282,9.0,9.0,42,0.00,,,0.00,Wunderground v.1.13,2013-03-09 18:40:00,
2013-03-09 10:46:00,55.1,32.4,30.02,NW,318,10.0,17.0,42,0.00,,,0.00,Wunderground v.1.13,2013-03-09 18:46:00,
2013-03-09 10:52:00,55.3,31.4,30.02,NNW,335,10.0,11.0,40,0.00,,,0.00,Wunderground v.1.13,2013-03-09 18:52:00,
2013-03-09 10:58:00,55.3,32.0,30.02,WNW,298,9.0,14.0,41,0.00,,,0.00,Wunderground v.1.13,2013-03-09 18:58:00,
2013-03-09 11:04:00,55.3,31.4,30.03,NW,316,10.0,12.0,40,0.00,,,0.00,Wunderground v.1.13,2013-03-09 19:04:00,
2013-03-09 11:09:00,55.6,31.6,30.03,WNW,296,10.0,11.0,40,0.00,,,0.00,Wunderground v.1.13,2013-03-09 19:09:00,
2013-03-09 11:15:00,56.0,30.1,30.03,NNW,344,9.0,9.0,37,0.00,,,0.00,Wunderground v.1.13,2013-03-09 19:15:00,
2013-03-09 11:21:00,56.2,31.5,30.03,NW,305,9.0,9.0,39,0.00,,,0.00,Wunderground v.1.13,2013-03-09 19:21:00,
2013-03-09 11:27:00,56.5,31.2,30.03,NNW,330,9.0,12.0,38,0.00,,,0.00,Wunderground v.1.13,2013-03-09 19:27:00,
2013-03-09 11:32:00,56.2,31.5,30.03,NNW,328,10.0,12.0,39,0.00,,,0.00,Wunderground v.1.13,2013-03-09 19:32:00,
2013-03-09 11:38:00,56.0,32.0,30.03,NW,312,11.0,17.0,40,0.00,,,0.00,Wunderground v.1.13,2013-03-09 19:38:00,
2013-03-09 11:44:00,55.9,31.3,30.03,NNW,336,11.0,13.0,39,0.00,,,0.00,Wunderground v.1.13,2013-03-09 19:44:00,
2013-03-09 11:50:00,56.2,31.5,30.03,ENE,58,10.0,10.0,39,0.00,,,0.00,Wunderground v.1.13,2013-03-09 19:50:00,
2013-03-09 11:55:00,56.3,32.3,30.03,NNW,333,10.0,11.0,40,0.00,,,0.00,Wunderground v.1.13,2013-03-09 19:55:00,
2013-03-09 12:01:00,56.5,31.8,30.03,WNW,298,10.0,20.0,39,0.00,,,0.00,Wunderground v.1.13,2013-03-09 20:01:00,
2013-03-09 12:07:00,56.5,31.8,30.03,WNW,292,10.0,16.0,39,0.00,,,0.00,Wunderground v.1.13,2013-03-09 20:07:00,
2013-03-09 12:12:00,56.6,30.6,30.03,West,265,9.0,10.0,37,0.00,,,0.00,Wunderground v.1.13,2013-03-09 20:12:00,
2013-03-09 12:18:00,56.2,32.2,30.03,WNW,298,10.0,18.0,40,0.00,,,0.00,Wunderground v.1.13,2013-03-09 20:18:00,
2013-03-09 12:24:00,56.5,31.8,30.03,North,353,10.0,17.0,39,0.00,,,0.00,Wunderground v.1.13,2013-03-09 20:24:00,
2013-03-09 12:30:00,56.5,31.8,30.03,WNW,287,10.0,11.0,39,0.00,,,0.00,Wunderground v.1.13,2013-03-09 20:30:00,
2013-03-09 12:35:00,56.7,31.4,30.03,NNW,335,10.0,10.0,38,0.00,,,0.00,Wunderground v.1.13,2013-03-09 20:35:00,
2013-03-09 12:41:00,56.3,30.3,30.03,WNW,285,10.0,13.0,37,0.00,,,0.00,Wunderground v.1.13,2013-03-09 20:41:00,
2013-03-09 12:47:00,56.7,30.7,30.03,NNW,332,10.0,11.0,37,0.00,,,0.00,Wunderground v.1.13,2013-03-09 20:47:00,
2013-03-09 12:52:00,57.2,31.1,30.03,NNW,333,9.0,9.0,37,0.00,,,0.00,Wunderground v.1.13,2013-03-09 20:52:00,
2013-03-09 12:58:00,57.0,30.3,30.03,West,278,9.0,11.0,36,0.00,,,0.00,Wunderground v.1.13,2013-03-09 20:58:00,
2013-03-09 13:04:00,57.2,30.5,30.03,NW,319,10.0,20.0,36,0.00,,,0.00,Wunderground v.1.13,2013-03-09 21:04:00,
2013-03-09 13:09:00,56.9,30.2,30.03,WNW,302,10.0,20.0,36,0.00,,,0.00,Wunderground v.1.13,2013-03-09 21:09:00,
2013-03-09 13:15:00,56.7,30.0,30.03,NW,313,12.0,14.0,36,0.00,,,0.00,Wunderground v.1.13,2013-03-09 21:15:00,
2013-03-09 13:21:00,56.5,31.2,30.03,WNW,299,12.0,14.0,38,0.00,,,0.00,Wunderground v.1.13,2013-03-09 21:21:00,
2013-03-09 13:26:00,56.6,29.2,30.03,NW,325,11.0,11.0,35,0.00,,,0.00,Wunderground v.1.13,2013-03-09 21:26:00,
2013-03-09 13:32:00,56.5,29.1,30.03,WNW,299,11.0,19.0,35,0.00,,,0.00,Wunderground v.1.13,2013-03-09 21:32:00,
2013-03-09 13:38:00,56.6,30.6,30.03,WSW,258,11.0,12.0,37,0.00,,,0.00,Wunderground v.1.13,2013-03-09 21:38:00,
2013-03-09 13:44:00,56.6,30.6,30.03,WNW,288,10.0,18.0,37,0.00,,,0.00,Wunderground v.1.13,2013-03-09 21:44:00,
2013-03-09 13:50:00,56.3,30.3,30.03,WNW,292,11.0,16.0,37,0.00,,,0.00,Wunderground v.1.13,2013-03-09 21:50:00,
2013-03-09 13:55:00,56.0,30.1,30.03,WNW,284,11.0,11.0,37,0.00,,,0.00,Wunderground v.1.13,2013-03-09 21:55:00,
2013-03-09 14:01:00,55.9,31.3,30.03,NW,326,11.0,17.0,39,0.00,,,0.00,Wunderground v.1.13,2013-03-09 22:01:00,
2013-03-09 14:06:00,55.9,31.3,30.03,NW,316,9.0,17.0,39,0.00,,,0.00,Wunderground v.1.13,2013-03-09 22:06:00,
2013-03-09 14:12:00,56.0,31.4,30.03,NW,306,8.0,16.0,39,0.00,,,0.00,Wunderground v.1.13,2013-03-09 22:12:00,
2013-03-09 14:18:00,56.0,31.4,30.03,West,264,10.0,12.0,39,0.00,,,0.00,Wunderground v.1.13,2013-03-09 22:18:00,
2013-03-09 14:23:00,55.7,31.1,30.03,WNW,296,9.0,11.0,39,0.00,,,0.00,Wunderground v.1.13,2013-03-09 22:23:00,
2013-03-09 14:29:00,55.4,30.8,30.03,WNW,298,12.0,16.0,39,0.00,,,0.00,Wunderground v.1.13,2013-03-09 22:29:00,
2013-03-09 14:35:00,55.6,31.0,30.04,NNW,337,11.0,13.0,39,0.00,,,0.00,Wunderground v.1.13,2013-03-09 22:35:00,
2013-03-09 14:41:00,55.6,31.0,30.04,NW,325,9.0,9.0,39,0.00,,,0.00,Wunderground v.1.13,2013-03-09 22:41:00,
2013-03-09 14:46:00,55.6,31.0,30.04,NW,313,12.0,16.0,39,0.00,,,0.00,Wunderground v.1.13,2013-03-09 22:46:00,
2013-03-09 14:52:00,55.4,30.8,30.04,NW,304,10.0,11.0,39,0.00,,,0.00,Wunderground v.1.13,2013-03-09 22:52:00,
2013-03-09 14:58:00,55.4,30.8,30.04,WNW,292,10.0,17.0,39,0.00,,,0.00,Wunderground v.1.13,2013-03-09 22:58:00,
2013-03-09 15:04:00,55.0,30.5,30.04,NW,315,12.0,20.0,39,0.00,,,0.00,Wunderground v.1.13,2013-03-09 23:04:00,
2013-03-09 15:09:00,55.4,32.1,30.04,West,275,11.0,14.0,41,0.00,,,0.00,Wunderground v.1.13,2013-03-09 23:09:00,
2013-03-09 15:15:00,55.3,32.0,30.05,WNW,294,11.0,11.0,41,0.00,,,0.00,Wunderground v.1.13,2013-03-09 23:15:00,
2013-03-09 15:20:00,55.1,31.8,30.05,WNW,299,9.0,11.0,41,0.00,,,0.00,Wunderground v.1.13,2013-03-09 23:20:00,
2013-03-09 15:26:00,55.1,32.4,30.05,NW,320,10.0,10.0,42,0.00,,,0.00,Wunderground v.1.13,2013-03-09 23:26:00,
2013-03-09 15:32:00,55.1,32.4,30.05,West,268,12.0,17.0,42,0.00,,,0.00,Wunderground v.1.13,2013-03-09 23:32:00,
2013-03-09 15:38:00,54.4,32.3,30.05,WNW,282,10.0,13.0,43,0.00,,,0.00,Wunderground v.1.13,2013-03-09 23:38:00,
2013-03-09 15:44:00,54.4,32.3,30.05,West,261,9.0,9.0,43,0.00,,,0.00,Wunderground v.1.13,2013-03-09 23:44:00,
2013-03-09 15:49:00,54.4,32.3,30.05,WNW,301,9.0,17.0,43,0.00,,,0.00,Wunderground v.1.13,2013-03-09 23:49:00,
2013-03-09 15:55:00,54.4,32.3,30.05,NNW,328,11.0,16.0,43,0.00,,,0.00,Wunderground v.1.13,2013-03-09 23:55:00,
2013-03-09 16:01:00,54.2,32.2,30.05,WNW,301,11.0,17.0,43,0.00,,,0.00,Wunderground v.1.13,2013-03-10 00:01:00,
2013-03-09 16:06:00,54.2,32.2,30.05,West,278,10.0,11.0,43,0.00,,,0.00,Wunderground v.1.13,2013-03-10 00:06:00,
2013-03-09 16:12:00,53.8,31.8,30.05,NW,325,7.0,12.0,43,0.00,,,0.00,Wunderground v.1.13,2013-03-10 00:12:00,
2013-03-09 16:18:00,53.8,31.8,30.06,West,275,8.0,13.0,43,0.00,,,0.00,Wunderground v.1.13,2013-03-10 00:18:00,
2013-03-09 16:23:00,53.8,31.8,30.06,NW,325,9.0,12.0,43,0.00,,,0.00,Wunderground v.1.13,2013-03-10 00:23:00,
2013-03-09 16:29:00,53.9,31.9,30.06,WNW,298,9.0,12.0,43,0.00,,,0.00,Wunderground v.1.13,2013-03-10 00:29:00,
2013-03-09 16:35:00,53.6,31.6,30.06,WNW,291,8.0,14.0,43,0.00,,,0.00,Wunderground v.1.13,2013-03-10 00:35:00,
2013-03-09 16:41:00,52.0,30.2,30.06,WNW,294,10.0,10.0,43,0.00,,,0.00,Wunderground v.1.13,2013-03-10 00:41:00,
2013-03-09 16:46:00,51.0,29.3,30.08,WNW,285,10.0,17.0,43,0.00,,,0.00,Wunderground v.1.13,2013-03-10 00:46:00,
2013-03-09 16:52:00,50.5,28.8,30.08,WNW,287,11.0,18.0,43,0.00,,,0.00,Wunderground v.1.13,2013-03-10 00:52:00,
2013-03-09 16:58:00,49.5,27.9,30.08,South,169,12.0,17.0,43,0.00,,,0.00,Wunderground v.1.13,2013-03-10 00:58:00,
2013-03-09 17:04:00,49.4,27.8,30.09,WNW,299,13.0,17.0,43,0.00,,,0.00,Wunderground v.1.13,2013-03-10 01:04:00,
2013-03-09 17:09:00,49.4,32.5,30.09,NNW,332,12.0,14.0,52,0.00,,,0.00,Wunderground v.1.13,2013-03-10 01:09:00,
2013-03-09 17:14:00,49.2,32.3,30.09,NW,316,11.0,11.0,52,0.00,,,0.00,Wunderground v.1.13,2013-03-10 01:14:00,
2013-03-09 17:20:00,49.2,32.3,30.09,WNW,292,10.0,10.0,52,0.00,,,0.00,Wunderground v.1.13,2013-03-10 01:20:00,
2013-03-09 17:26:00,48.9,32.5,30.09,WNW,289,10.0,12.0,53,0.00,,,0.00,Wunderground v.1.13,2013-03-10 01:26:00,
2013-03-09 17:32:00,48.5,32.1,30.10,West,267,10.0,11.0,53,0.00,,,0.00,Wunderground v.1.13,2013-03-10 01:32:00,
2013-03-09 17:38:00,48.2,31.9,30.10,WNW,291,10.0,13.0,53,0.00,,,0.00,Wunderground v.1.13,2013-03-10 01:38:00,
2013-03-09 17:44:00,47.6,31.3,30.10,WNW,282,9.0,17.0,53,0.00,,,0.00,Wunderground v.1.13,2013-03-10 01:44:00,
2013-03-09 17:49:00,47.0,32.5,30.12,NW,315,10.0,14.0,57,0.00,,,0.00,Wunderground v.1.13,2013-03-10 01:49:00,
2013-03-09 17:55:00,46.5,32.1,30.12,NW,323,11.0,11.0,57,0.00,,,0.00,Wunderground v.1.13,2013-03-10 01:55:00,
2013-03-09 18:01:00,46.4,32.0,30.12,NW,304,12.0,14.0,57,0.00,,,0.00,Wunderground v.1.13,2013-03-10 02:01:00,
2013-03-09 18:06:00,46.4,32.0,30.12,West,265,11.0,12.0,57,0.00,,,0.00,Wunderground v.1.13,2013-03-10 02:06:00,
2013-03-09 18:12:00,46.2,31.8,30.12,NNW,337,11.0,13.0,57,0.00,,,0.00,Wunderground v.1.13,2013-03-10 02:12:00,
2013-03-09 18:18:00,46.2,31.4,30.13,WNW,295,12.0,21.0,56,0.00,,,0.00,Wunderground v.1.13,2013-03-10 02:18:00,
2013-03-09 18:23:00,46.2,31.4,30.13,NW,312,12.0,16.0,56,0.00,,,0.00,Wunderground v.1.13,2013-03-10 02:23:00,
2013-03-09 18:29:00,46.2,31.4,30.13,NW,305,12.0,13.0,56,0.00,,,0.00,Wunderground v.1.13,2013-03-10 02:29:00,
2013-03-09 18:35:00,46.2,31.4,30.14,WNW,292,11.0,13.0,56,0.00,,,0.00,Wunderground v.1.13,2013-03-10 02:35:00,
2013-03-09 18:41:00,46.2,30.9,30.14,NW,325,9.0,11.0,55,0.00,,,0.00,Wunderground v.1.13,2013-03-10 02:41:00,
2013-03-09 18:47:00,46.2,30.9,30.15,WNW,292,8.0,12.0,55,0.00,,,0.00,Wunderground v.1.13,2013-03-10 02:47:00,
2013-03-09 18:52:00,46.0,31.2,30.15,WSW,256,7.0,10.0,56,0.00,,,0.00,Wunderground v.1.13,2013-03-10 02:52:00,
2013-03-09 18:58:00,46.0,31.2,30.15,West,267,7.0,7.0,56,0.00,,,0.00,Wunderground v.1.13,2013-03-10 02:58:00,
2013-03-09 19:04:00,45.7,30.9,30.15,West,278,4.0,21.0,56,0.00,,,0.00,Wunderground v.1.13,2013-03-10 03:04:00,
2013-03-09 19:09:00,45.7,30.9,30.15,West,268,4.0,5.0,56,0.00,,,0.00,Wunderground v.1.13,2013-03-10 03:09:00,
2013-03-09 19:15:00,45.7,31.3,30.12,West,267,5.0,7.0,57,0.00,,,0.00,Wunderground v.1.13,2013-03-10 03:15:00,
2013-03-09 19:21:00,45.5,31.1,30.12,South,171,6.0,9.0,57,0.00,,,0.00,Wunderground v.1.13,2013-03-10 03:21:00,
2013-03-09 19:26:00,45.4,31.0,30.12,WNW,299,7.0,8.0,57,0.00,,,0.00,Wunderground v.1.13,2013-03-10 03:26:00,
2013-03-09 19:32:00,45.4,31.0,30.13,West,272,7.0,7.0,57,0.00,,,0.00,Wunderground v.1.13,2013-03-10 03:32:00,
2013-03-09 19:38:00,45.2,30.9,30.13,NW,308,5.0,6.0,57,0.00,,,0.00,Wunderground v.1.13,2013-03-10 03:38:00,
2013-03-09 19:44:00,45.1,31.2,30.13,WNW,282,4.0,6.0,58,0.00,,,0.00,Wunderground v.1.13,2013-03-10 03:44:00,
2013-03-09 19:49:00,44.8,30.9,30.14,WNW,295,3.0,6.0,58,0.00,,,0.00,Wunderground v.1.13,2013-03-10 03:49:00,
2013-03-09 19:55:00,44.5,31.1,30.14,NW,309,3.0,3.0,59,0.00,,,0.00,Wunderground v.1.13,2013-03-10 03:55:00,
2013-03-09 20:01:00,44.5,31.1,30.14,West,263,5.0,16.0,59,0.00,,,0.00,Wunderground v.1.13,2013-03-10 04:01:00,
2013-03-09 20:06:00,44.3,30.9,30.14,West,274,5.0,8.0,59,0.00,,,0.00,Wunderground v.1.13,2013-03-10 04:06:00,
2013-03-09 20:12:00,44.3,30.9,30.14,WNW,301,5.0,6.0,59,0.00,,,0.00,Wunderground v.1.13,2013-03-10 04:12:00,
2013-03-09 20:18:00,44.5,31.1,30.13,NW,311,7.0,11.0,59,0.00,,,0.00,Wunderground v.1.13,2013-03-10 04:18:00,
2013-03-09 20:24:00,44.5,31.1,30.13,NW,319,6.0,7.0,59,0.00,,,0.00,Wunderground v.1.13,2013-03-10 04:24:00,
2013-03-09 20:29:00,44.3,30.9,30.14,WSW,254,4.0,4.0,59,0.00,,,0.00,Wunderground v.1.13,2013-03-10 04:29:00,
2013-03-09 20:35:00,44.2,30.8,30.14,WNW,288,4.0,4.0,59,0.00,,,0.00,Wunderground v.1.13,2013-03-10 04:35:00,
2013-03-09 20:41:00,43.9,30.9,30.14,WSW,237,3.0,3.0,60,0.00,,,0.00,Wunderground v.1.13,2013-03-10 04:41:00,
2013-03-09 20:47:00,43.5,30.9,30.15,WSW,243,2.0,3.0,61,0.00,,,0.00,Wunderground v.1.13,2013-03-10 04:47:00,
2013-03-09 20:52:00,43.1,31.0,30.15,WSW,256,2.0,3.0,62,0.00,,,0.00,Wunderground v.1.13,2013-03-10 04:52:00,
2013-03-09 20:58:00,43.1,30.6,30.15,WSW,250,2.0,3.0,61,0.00,,,0.00,Wunderground v.1.13,2013-03-10 04:58:00,
2013-03-09 21:00:00,43.1,30.6,30.15,West,281,3.0,13.0,61,0.00,,,0.00,Wunderground v.1.13,2013-03-10 05:00:00,
2013-03-09 21:01:00,43.1,30.6,30.15,West,281,3.0,13.0,61,0.00,,,0.00,Wunderground v.1.13,2013-03-10 05:01:00,
2013-03-09 21:03:00,43.1,30.6,30.15,West,263,2.0,13.0,61,0.00,,,0.00,Wunderground v.1.13,2013-03-10 05:03:00,
2013-03-09 21:04:00,43.1,30.6,30.15,WSW,250,2.0,13.0,61,0.00,,,0.00,Wunderground v.1.13,2013-03-10 05:04:00,
2013-03-09 21:09:00,43.3,30.3,30.15,WNW,285,4.0,6.0,60,0.00,,,0.00,Wunderground v.1.13,2013-03-10 05:09:00,
2013-03-09 21:15:00,43.5,30.5,30.14,West,274,4.0,4.0,60,0.00,,,0.00,Wunderground v.1.13,2013-03-10 05:15:00,
2013-03-09 21:20:00,43.2,30.6,30.14,West,270,3.0,5.0,61,0.00,,,0.00,Wunderground v.1.13,2013-03-10 05:20:00,
2013-03-09 21:26:00,43.2,30.2,30.14,West,267,3.0,3.0,60,0.00,,,0.00,Wunderground v.1.13,2013-03-10 05:26:00,
2013-03-09 21:32:00,43.3,30.3,30.14,West,281,3.0,4.0,60,0.00,,,0.00,Wunderground v.1.13,2013-03-10 05:32:00,
2013-03-09 21:38:00,43.3,29.9,30.14,WNW,285,3.0,5.0,59,0.00,,,0.00,Wunderground v.1.13,2013-03-10 05:38:00,
2013-03-09 21:44:00,43.3,30.3,30.14,West,265,4.0,6.0,60,0.00,,,0.00,Wunderground v.1.13,2013-03-10 05:44:00,
2013-03-09 21:50:00,43.2,30.2,30.15,West,280,3.0,3.0,60,0.00,,,0.00,Wunderground v.1.13,2013-03-10 05:50:00,
2013-03-09 21:55:00,42.9,30.4,30.15,WNW,287,3.0,3.0,61,0.00,,,0.00,Wunderground v.1.13,2013-03-10 05:55:00,
2013-03-09 22:01:00,42.8,29.9,30.15,WNW,287,2.0,7.0,60,0.00,,,0.00,Wunderground v.1.13,2013-03-10 06:01:00,
2013-03-09 22:06:00,42.6,29.7,30.15,WNW,287,1.0,2.0,60,0.00,,,0.00,Wunderground v.1.13,2013-03-10 06:06:00,
2013-03-09 22:12:00,42.5,30.0,30.15,SSE,158,1.0,3.0,61,0.00,,,0.00,Wunderground v.1.13,2013-03-10 06:12:00,
2013-03-09 22:18:00,41.6,29.9,30.16,SSE,158,1.0,1.0,63,0.00,,,0.00,Wunderground v.1.13,2013-03-10 06:18:00,
2013-03-09 22:24:00,40.8,30.3,30.16,SSE,160,0.0,1.0,66,0.00,,,0.00,Wunderground v.1.13,2013-03-10 06:24:00,
2013-03-09 22:29:00,39.8,30.1,30.17,SSE,160,0.0,0.0,68,0.00,,,0.00,Wunderground v.1.13,2013-03-10 06:29:00,
2013-03-09 22:35:00,38.9,29.9,30.17,SSE,158,0.0,0.0,70,0.00,,,0.00,Wunderground v.1.13,2013-03-10 06:35:00,
2013-03-09 22:41:00,38.5,30.3,30.17,SSE,158,0.0,0.0,72,0.00,,,0.00,Wunderground v.1.13,2013-03-10 06:41:00,
2013-03-09 22:47:00,38.0,30.1,30.18,SSE,158,0.0,0.0,73,0.00,,,0.00,Wunderground v.1.13,2013-03-10 06:47:00,
2013-03-09 22:53:00,37.8,30.3,30.18,SSE,158,0.0,0.0,74,0.00,,,0.00,Wunderground v.1.13,2013-03-10 06:53:00,
2013-03-09 22:58:00,37.5,30.0,30.18,SSE,158,0.0,0.0,74,0.00,,,0.00,Wunderground v.1.13,2013-03-10 06:58:00,
2013-03-09 23:05:00,37.3,30.4,30.17,SSE,158,0.0,0.0,76,0.00,,,0.00,Wunderground v.1.13,2013-03-10 07:05:00,
2013-03-09 23:11:00,37.2,30.3,30.17,SSE,158,0.0,0.0,76,0.00,,,0.00,Wunderground v.1.13,2013-03-10 07:11:00,
2013-03-09 23:16:00,36.9,30.0,30.17,SSE,158,0.0,0.0,76,0.00,,,0.00,Wunderground v.1.13,2013-03-10 07:16:00,
2013-03-09 23:22:00,36.8,29.9,30.17,SSE,158,0.0,0.0,76,0.00,,,0.00,Wunderground v.1.13,2013-03-10 07:22:00,
2013-03-09 23:28:00,36.5,29.7,30.17,SSE,158,0.0,0.0,76,0.00,,,0.00,Wunderground v.1.13,2013-03-10 07:28:00,
2013-03-09 23:34:00,36.3,29.8,30.18,SSE,158,0.0,0.0,77,0.00,,,0.00,Wunderground v.1.13,2013-03-10 07:34:00,
2013-03-09 23:40:00,36.2,29.7,30.18,SSE,158,0.0,0.0,77,0.00,,,0.00,Wunderground v.1.13,2013-03-10 07:40:00,
2013-03-09 23:45:00,36.0,29.5,30.18,SSE,158,0.0,0.0,77,0.00,,,0.00,Wunderground v.1.13,2013-03-10 07:45:00,
2013-03-09 23:51:00,36.0,29.5,30.18,SSE,158,0.0,0.0,77,0.00,,,0.00,Wunderground v.1.13,2013-03-10 07:51:00,
2013-03-09 23:57:00,35.9,29.4,30.18,SSE,158,0.0,0.0,77,0.00,,,0.00,Wunderground v.1.13,2013-03-10 07:57:00,